Hourly Data Report for November 21, 2011

HALIFAX STANFIELD INT'L A
NOVA SCOTIA

44°52'48.060" N
63°30'00.050" W
145.40 m
8202250
71395
YHZ

Download Data

Hourly Data (November 2011)
Hourly Data Report for November 21, 2011
TIME
LST
Temp Definition
°C
Dew Point Definition
°C
Rel Hum Definition
%
Precip. Amount Definition
mm

Wind Dir Definition
10's deg

Wind Spd Definition
km/h
Visibility Definition
km
Stn Press Definition
kPa
Hmdx Definition


Wind Chill Definition


Weather Definition


00:00 8.3 6.4 88   27 15 24.1 99.64     Mostly Cloudy
01:00 7.7 6.2 90   28 9 24.1 99.70     Mostly Cloudy
02:00 7.9 4.6 80   34 22 24.1 99.72     Mostly Cloudy
03:00 6.6 3.1 78   33 19 24.1 99.80     Cloudy
04:00 4.8 1.2 77   36 19 24.1 99.90     Cloudy
05:00 3.6 -1.2 71   36 22 24.1 100.01     Cloudy
06:00 2.3 -3.8 64   34 20 24.1 100.11     Cloudy
07:00 1.0 -3.9 70   33 22 24.1 100.21     Mainly Clear
08:00 0.0 -4.1 74   34 13 24.1 100.30   -4 Mostly Cloudy
09:00 0.8 -4.0 70   35 24 24.1 100.39     Mostly Cloudy
10:00 1.9 -4.4 63   36 24 24.1 100.44     Mostly Cloudy
11:00 1.6 -5.7 58   35 22 24.1 100.52     Mostly Cloudy
12:00 2.2 -6.3 53   33 33 24.1 100.51     Mainly Clear
13:00 2.3 -6.4 53   36 20 24.1 100.50     Mainly Clear
14:00 2.0 -7.3 50   36 20 24.1 100.50     Mainly Clear
15:00 0.9 -7.6 53   36 26 24.1 100.52     Mainly Clear
16:00 0.1 -7.5 57   36 24 24.1 100.59     Mainly Clear
17:00 -1.7 -7.3 66   36 19 24.1 100.65   -7 Mainly Clear
18:00 -2.7 -7.5 69   35 13 24.1 100.73   -7 Clear
19:00 -3.6 -7.4 75   35 11 24.1 100.83   -8 Clear
20:00 -4.3 -7.6 78   36 9 24.1 100.88   -8 Clear
21:00 -5.0 -7.7 81   36 9 24.1 100.91   -9 Clear
22:00 -4.3 -7.9 76   33 9 24.1 100.95   -8 Clear
23:00 -5.3 -8.1 81   2 4 24.1 100.96   -7 Clear

Notes on Data Quality.

Legend

  • E = Estimated
  • M = Missing
  • NA = Not Available*
  • [empty] = Indicates an unobserved value
Date modified: